Weather History for KAQP - October, 2013

Change the Weather History Date:

Friday, October 25, 2013

  Actual Average Record
Temperature  
Mean Temperature 42 °F -  
Max Temperature 62 °F 50 °F 73 °F (2000)
Min Temperature 23 °F 32 °F 21 °F (2005)
Degree Days  
Heating Degree Days 22    
Moisture  
Dew Point 32 °F    
Average Humidity 70    
Maximum Humidity 93    
Minimum Humidity 37    
Precipitation  
Precipitation 0.00 in - - ()
Sea Level Pressure  
Sea Level Pressure 30.04 in    
Wind  
Wind Speed 7 mph (SW)    
Max Wind Speed 21 mph    
Max Gust Speed 29 mph    
Visibility 10 miles    
Events      
Averages and records for this station are not official NWS values.
T = Trace of Precipitation, MM = Missing Value Source: NWS Daily Summary

Daily Weather History Graph

Daily Weather History Graph

Search for Another Location

Airport or City:

Trip Planner

Search our weather history database for the weather conditions in past years. The results will help you decide how hot, cold, wet, or windy it might be!

Date:

Astronomy

Oct. 25, 2013 Rise Set
Actual Time 7:53 AM CDT 6:21 PM CDT
Civil Twilight 7:23 AM CDT 6:51 PM CDT
Nautical Twilight 6:48 AM CDT 7:26 PM CDT
Astronomical Twilight 6:14 AM CDT 8:00 PM CDT
Moon 11:38 PM CDT (10/25) 1:39 PM CDT (10/25)
Length of Visible Light 11h 28m
Length of Day
10h 27m
Waning Gibbous, 62% of the Moon is Illuminated
Oct 25
Waning Gibbous
Oct 26
Last Quarter
Nov 3
New
Nov 9
First Quarter
Nov 17
Full

Hourly Weather History & Observations

Time (CDT) Temp. Windchill Dew Point Humidity Pressure Visibility Wind Dir Wind Speed Gust Speed Precip Events Conditions
12:13 AM 26.6 °F 21.2 °F 24.8 °F 93% 30.32 in 10.0 mi SW 4.6 mph - N/A   Clear
12:33 AM 26.6 °F 21.2 °F 24.8 °F 93% 30.32 in 10.0 mi SW 4.6 mph - N/A   Clear
12:53 AM 26.6 °F 22.6 °F 24.8 °F 93% 30.32 in 10.0 mi SSW 3.5 mph - N/A   Clear
1:14 AM 24.8 °F - 23.0 °F 93% 30.31 in 10.0 mi Calm Calm - N/A   Clear
1:33 AM 24.8 °F - 21.2 °F 86% 30.31 in 10.0 mi Calm Calm - N/A   Clear
1:53 AM 23.0 °F - 21.2 °F 93% 30.31 in 10.0 mi Calm Calm - N/A   Clear
2:13 AM 24.8 °F - 21.2 °F 86% 30.31 in 10.0 mi Calm Calm - N/A   Clear
2:34 AM 24.8 °F - 21.2 °F 86% 30.31 in 10.0 mi Calm Calm - N/A   Clear
2:54 AM 24.8 °F - 23.0 °F 93% 30.31 in 10.0 mi Calm Calm - N/A   Clear
3:13 AM 24.8 °F - 23.0 °F 93% 30.30 in 10.0 mi Calm Calm - N/A   Clear
3:33 AM 24.8 °F - 21.2 °F 86% 30.29 in 10.0 mi Calm Calm - N/A   Clear
3:53 AM 24.8 °F - 21.2 °F 86% 30.29 in 10.0 mi Calm Calm - N/A   Clear
4:13 AM 24.8 °F 19.1 °F 21.2 °F 86% 30.27 in 10.0 mi South 4.6 mph - N/A   Clear
4:33 AM 24.8 °F 20.5 °F 23.0 °F 93% 30.27 in 10.0 mi South 3.5 mph - N/A   Clear
4:54 AM 24.8 °F 19.1 °F 23.0 °F 93% 30.26 in 10.0 mi SSE 4.6 mph - N/A   Clear
5:13 AM 24.8 °F 19.1 °F 21.2 °F 86% 30.26 in 10.0 mi South 4.6 mph - N/A   Clear
5:33 AM 26.6 °F 21.2 °F 23.0 °F 86% 30.25 in 10.0 mi South 4.6 mph - N/A   Clear
5:53 AM 26.6 °F 21.2 °F 23.0 °F 86% 30.24 in 10.0 mi SSE 4.6 mph - N/A   Clear
6:13 AM 26.6 °F 21.2 °F 21.2 °F 80% 30.24 in 10.0 mi South 4.6 mph - N/A   Clear
6:33 AM 26.6 °F 21.2 °F 21.2 °F 80% 30.23 in 10.0 mi SSE 4.6 mph - N/A   Clear
6:54 AM 26.6 °F 21.2 °F 21.2 °F 80% 30.22 in 10.0 mi South 4.6 mph - N/A   Clear
7:14 AM 26.6 °F 21.2 °F 23.0 °F 86% 30.21 in 10.0 mi SSE 4.6 mph - N/A   Clear
7:34 AM 26.6 °F 21.2 °F 23.0 °F 86% 30.20 in 10.0 mi SSE 4.6 mph - N/A   Clear
7:54 AM 26.6 °F 21.2 °F 23.0 °F 86% 30.19 in 10.0 mi SSE 4.6 mph - N/A   Clear
8:14 AM 26.6 °F 21.2 °F 24.8 °F 93% 30.17 in 10.0 mi South 4.6 mph - N/A   Clear
8:33 AM 28.4 °F 20.4 °F 26.6 °F 93% 30.16 in 10.0 mi South 8.1 mph - N/A   Clear
8:53 AM 30.2 °F 22.6 °F 26.6 °F 86% 30.15 in 10.0 mi South 8.1 mph - N/A   Clear
9:13 AM 32.0 °F 25.6 °F 26.6 °F 80% 30.14 in 10.0 mi SSE 6.9 mph - N/A   Clear
9:33 AM 33.8 °F 27.7 °F 28.4 °F 81% 30.13 in 10.0 mi South 6.9 mph - N/A   Clear
9:53 AM 35.6 °F 28.6 °F 28.4 °F 75% 30.12 in 10.0 mi South 9.2 mph - N/A   Clear
10:14 AM 37.4 °F 30.3 °F 30.2 °F 75% 30.10 in 10.0 mi South 10.4 mph - N/A   Clear
10:33 AM 41.0 °F 34.7 °F 32.0 °F 70% 30.09 in 10.0 mi SSW 10.4 mph - N/A   Clear
10:53 AM 42.8 °F 38.0 °F 33.8 °F 70% 30.08 in 10.0 mi SSW 8.1 mph - N/A   Clear
11:13 AM 44.6 °F 38.4 °F 33.8 °F 66% 30.06 in 10.0 mi SSW 12.7 mph - N/A   Clear
11:33 AM 46.4 °F 41.5 °F 35.6 °F 66% 30.04 in 10.0 mi SSW 10.4 mph - N/A   Clear
11:53 AM 48.2 °F - 35.6 °F 62% 30.03 in 10.0 mi SSW 10.4 mph - N/A   Clear
12:13 PM 51.8 °F - 35.6 °F 54% 30.01 in 10.0 mi SSW 15.0 mph 18.4 mph N/A   Clear
12:33 PM 53.6 °F - 37.4 °F 54% 30.00 in 10.0 mi SSW 13.8 mph 18.4 mph N/A   Clear
12:53 PM 53.6 °F - 37.4 °F 54% 29.97 in 10.0 mi SSW 13.8 mph 17.3 mph N/A   Clear
1:13 PM 53.6 °F - 35.6 °F 51% 29.95 in 10.0 mi SSW 16.1 mph 19.6 mph N/A   Clear
1:34 PM 57.2 °F - 37.4 °F 48% 29.94 in 10.0 mi SW 18.4 mph - N/A   Clear
1:53 PM 59.0 °F - 37.4 °F 45% 29.93 in 10.0 mi SW 13.8 mph 20.7 mph N/A   Clear
2:13 PM 60.8 °F - 37.4 °F 42% 29.91 in 10.0 mi SW 11.5 mph 19.6 mph N/A   Clear
2:33 PM 62.6 °F - 35.6 °F 37% 29.89 in 10.0 mi SW 20.7 mph 24.2 mph N/A   Clear
2:53 PM 62.6 °F - 37.4 °F 39% 29.88 in 10.0 mi SW 17.3 mph 21.9 mph N/A   Clear
3:13 PM 62.6 °F - 39.2 °F 42% 29.86 in 10.0 mi SW 18.4 mph 27.6 mph N/A   Clear
3:33 PM 62.6 °F - 39.2 °F 42% 29.85 in 10.0 mi SW 20.7 mph 28.8 mph N/A   Clear
3:53 PM 60.8 °F - 41.0 °F 48% 29.84 in 10.0 mi SW 15.0 mph 19.6 mph N/A   Clear
4:13 PM 60.8 °F - 41.0 °F 48% 29.83 in 10.0 mi SW 17.3 mph 23.0 mph N/A   Clear
4:33 PM 62.6 °F - 41.0 °F 45% 29.82 in 10.0 mi WSW 18.4 mph 24.2 mph N/A   Clear
4:53 PM 62.6 °F - 41.0 °F 45% 29.81 in 10.0 mi WSW 16.1 mph 24.2 mph N/A   Clear
5:13 PM 62.6 °F - 41.0 °F 45% 29.81 in 10.0 mi WSW 19.6 mph 28.8 mph N/A   Clear
5:33 PM 60.8 °F - 42.8 °F 52% 29.82 in 10.0 mi West 11.5 mph - N/A   Clear
5:53 PM 57.2 °F - 42.8 °F 59% 29.82 in 10.0 mi West 9.2 mph - N/A   Clear
6:13 PM 55.4 °F - 42.8 °F 63% 29.82 in 10.0 mi WSW 9.2 mph - N/A   Clear
6:33 PM 53.6 °F - 42.8 °F 67% 29.81 in 10.0 mi WSW 9.2 mph - N/A   Clear
6:53 PM 55.4 °F - 42.8 °F 63% 29.82 in 10.0 mi WSW 11.5 mph - N/A   Clear
7:13 PM 53.6 °F - 42.8 °F 67% 29.82 in 10.0 mi West 13.8 mph - N/A   Clear
7:33 PM 55.4 °F - 42.8 °F 63% 29.82 in 10.0 mi West 11.5 mph - N/A   Clear
7:53 PM 51.8 °F - 42.8 °F 71% 29.83 in 10.0 mi West 9.2 mph - N/A   Clear
8:13 PM 50.0 °F - 42.8 °F 76% 29.85 in 10.0 mi WNW 8.1 mph - N/A   Clear
8:33 PM 48.2 °F - 42.8 °F 82% 29.85 in 10.0 mi West 8.1 mph - N/A   Clear
8:53 PM 48.2 °F - 41.0 °F 76% 29.85 in 10.0 mi WNW 10.4 mph - N/A   Clear
9:14 PM 50.0 °F - 39.2 °F 66% 29.85 in 10.0 mi West 11.5 mph - N/A   Clear
9:33 PM 50.0 °F - 39.2 °F 66% 29.85 in 10.0 mi West 10.4 mph - N/A   Clear
9:53 PM 48.2 °F - 39.2 °F 71% 29.86 in 10.0 mi West 12.7 mph - N/A   Clear
10:14 PM 50.0 °F - 37.4 °F 62% 29.86 in 10.0 mi WNW 10.4 mph - N/A   Clear
10:33 PM 50.0 °F - 37.4 °F 62% 29.87 in 10.0 mi WNW 15.0 mph 20.7 mph N/A   Clear
10:54 PM 50.0 °F - 35.6 °F 58% 29.88 in 10.0 mi NW 13.8 mph 21.9 mph N/A   Clear
11:13 PM 50.0 °F - 35.6 °F 58% 29.90 in 10.0 mi NNW 20.7 mph 24.2 mph N/A   Clear
11:33 PM 48.2 °F - 33.8 °F 58% 29.91 in 10.0 mi NNW 15.0 mph 23.0 mph N/A   Clear
11:53 PM 48.2 °F - 30.2 °F 50% 29.91 in 10.0 mi NW 15.0 mph 21.9 mph N/A   Clear